Date,TemperatureHighF,TemperatureAvgF,TemperatureLowF,DewpointHighF,DewpointAvgF,DewpointLowF,HumidityHigh,HumidityAvg,HumidityLow,PressureMaxIn,PressureMinIn,WindSpeedMaxMPH,WindSpeedAvgMPH,GustSpeedMaxMPH,PrecipitationSumIn
2013-4-1,63.1,54.0,46.4,50.9,48.1,42.7,89,81,57,29.62,29.51,5,0,5,0.40
2013-4-2,70.7,52.1,41.5,54.0,45.2,38.1,91,79,47,29.65,29.53,8,0,8,0.00
2013-4-3,77.0,56.5,42.1,52.1,44.8,38.7,91,69,25,29.59,29.45,7,1,7,0.00
2013-4-4,58.6,52.6,48.3,54.0,48.6,43.9,91,86,79,29.58,29.49,5,1,5,0.44
2013-4-5,64.7,54.8,48.5,51.2,48.3,44.1,90,79,56,29.65,29.58,9,1,9,0.00
2013-4-6,65.5,53.7,46.5,52.8,46.8,42.2,88,78,54,29.67,29.59,11,1,11,0.00
2013-4-7,65.8,53.2,44.0,52.5,45.4,40.4,88,76,52,29.65,29.35,16,3,16,0.10
2013-4-8,63.4,51.0,42.4,46.8,38.2,32.7,87,64,33,29.47,29.30,19,7,19,0.02
2013-4-9,72.5,54.7,39.7,43.0,37.2,32.1,84,56,24,29.56,29.46,17,3,17,0.00
2013-4-10,85.1,63.7,49.2,49.4,44.1,39.8,72,52,27,29.62,29.52,14,3,14,0.00
2013-4-11,69.5,56.2,43.7,48.0,42.9,38.3,81,63,35,29.56,29.34,15,4,15,0.00
2013-4-12,77.2,51.8,38.3,50.5,41.3,33.9,87,70,36,29.38,29.29,8,1,8,0.00
2013-4-13,70.1,51.7,41.7,50.1,39.8,35.3,85,66,40,29.40,29.33,13,2,13,0.00
2013-4-14,67.8,50.6,38.3,41.6,37.0,33.6,85,63,31,29.40,29.35,7,1,7,0.00
2013-4-15,54.9,47.1,42.3,44.8,37.6,32.7,87,71,49,29.42,29.34,15,5,15,0.03
2013-4-16,63.3,47.6,33.6,35.5,32.3,29.0,85,59,30,29.59,29.42,15,2,15,0.00
2013-4-17,67.0,52.2,39.5,33.9,31.3,24.8,74,48,21,29.70,29.59,19,4,19,0.00
2013-4-18,75.6,53.9,35.8,40.2,34.1,30.1,84,53,20,29.72,29.64,14,1,14,0.00
2013-4-19,83.0,59.5,39.6,46.0,40.2,32.9,83,54,24,29.71,29.56,15,2,15,0.00
2013-4-20,81.6,60.7,44.5,45.1,40.9,37.0,84,54,21,29.58,29.46,14,2,14,0.00
2013-4-21,87.6,62.8,42.3,50.3,41.0,36.4,82,52,17,29.51,29.42,13,1,13,0.00
2013-4-22,85.4,59.9,45.7,53.5,45.6,39.0,82,62,26,29.47,29.35,14,2,14,0.00
2013-4-23,75.5,53.8,43.6,51.9,45.0,39.4,86,74,39,29.42,29.34,11,2,11,0.00
2013-4-24,62.2,50.6,43.8,48.2,44.0,39.9,88,78,60,29.45,29.31,10,1,10,0.00
2013-4-25,71.8,54.8,42.6,50.4,45.0,38.5,88,72,45,29.60,29.45,14,2,14,0.00
2013-4-26,70.5,50.9,44.2,50.7,43.9,39.8,86,78,49,29.68,29.60,0,0,0,0.00
2013-4-27,82.9,59.7,41.0,53.3,45.2,36.5,85,63,33,29.69,29.56,0,0,0,0.00
2013-4-28,83.3,61.2,41.7,56.5,47.4,36.9,85,64,37,29.56,29.38,1,0,1,0.00
2013-4-29,90.8,66.2,48.3,53.3,46.8,43.7,86,56,22,29.39,29.28,4,0,4,0.00
2013-4-30,81.6,61.5,45.0,52.3,42.8,39.5,84,56,24,29.33,29.27,4,0,4,0.00